Language: 


Des rapports , des résumés tant et plus, au choix de chacun....


Données statistiques de la station
Quotidien Rapport Décembre 25, 2017 Unités:  Anglais    Métrique   les deux
« Précédent Jour
Suivant Jour »
Quotidien Hebdomadaire Mensuel Annuel Actuel
  Haut: Bas: Moyen:
Température: TemperatureC °F 5.6 °F 7.9 °F
Pt de rosée: DewpointC °F 5.0 °F 7.1 °F
Humidité: Humidity % 85 % 93 %
Vitesse du vent: WindSpeedKMH mph 6.1 mph 16.4 mph
Rafales: WindSpeedGustKMH mph - -
Vent:- - SSW
Pression: PressurehPa in 1001.9 in -
Précipitation: 0.0 in    
Historical Graphs
 
 
Données statistiques pour Décembre 25, 2017
Heure Température Point de rosée Pression Vent Vitesse du vent Refales Humidité Pluie (taux horaire)
TemperatureC °F DewpointC °F PressurehPa in Calm     Humidity % HourlyPrecipMM in
00:04 9.3 °F 9.0 °F 1019.9 in WSW 17.7 mph 21.6 mph 98 % 0.0 in
00:08 9.3 °F 9.0 °F 1019.9 in SSW 14.0 mph 21.6 mph 98 % 0.0 in
00:13 9.3 °F 9.0 °F 1019.9 in SSW 19.8 mph 19.8 mph 98 % 0.0 in
00:15 9.3 °F 9.0 °F 1019.9 in WSW 10.1 mph 19.8 mph 98 % 0.0 in
00:20 9.3 °F 9.0 °F 1019.9 in SW 11.9 mph 19.8 mph 98 % 0.0 in
00:25 9.3 °F 9.0 °F 1020.9 in SW 12.2 mph 20.6 mph 98 % 0.0 in
00:26 9.3 °F 9.0 °F 1020.9 in WSW 19.8 mph 20.6 mph 98 % 0.0 in
00:30 9.3 °F 9.0 °F 1020.9 in WSW 13.0 mph 21.2 mph 98 % 0.0 in
00:33 9.3 °F 9.0 °F 1020.9 in WSW 9.3 mph 21.2 mph 98 % 0.0 in
00:38 9.3 °F 9.0 °F 1020.9 in SSW 13.0 mph 19.8 mph 98 % 0.0 in
00:42 9.3 °F 9.0 °F 1020.9 in SW 13.7 mph 14.0 mph 98 % 0.0 in
00:47 9.3 °F 9.0 °F 1020.9 in WSW 10.5 mph 14.0 mph 98 % 0.0 in
00:49 9.3 °F 9.0 °F 1020.9 in SSW 9.7 mph 14.0 mph 98 % 0.0 in
00:54 9.3 °F 9.0 °F 1020.9 in SSW 10.1 mph 14.0 mph 98 % 0.0 in
00:55 9.3 °F 9.0 °F 1020.9 in SSW 13.7 mph 14.0 mph 98 % 0.0 in
01:00 9.3 °F 9.0 °F 1020.9 in SW 14.0 mph 14.0 mph 98 % 0.0 in
01:01 9.3 °F 9.0 °F 1020.9 in WSW 9.7 mph 14.0 mph 98 % 0.0 in
01:03 9.3 °F 9.0 °F 1020.9 in SW 12.6 mph 15.8 mph 98 % 0.0 in
01:07 9.3 °F 9.0 °F 1020.9 in SSW 13.7 mph 18.3 mph 98 % 0.0 in
01:08 9.4 °F 9.0 °F 1020.9 in SSW 11.9 mph 18.3 mph 98 % 0.0 in
01:13 9.4 °F 9.0 °F 1020.9 in SW 13.0 mph 21.2 mph 98 % 0.0 in
01:14 9.4 °F 9.0 °F 1020.9 in WSW 10.1 mph 21.2 mph 98 % 0.0 in
01:17 9.4 °F 9.0 °F 1020.9 in WSW 15.8 mph 21.2 mph 98 % 0.0 in
01:22 9.4 °F 9.0 °F 1020.9 in WSW 13.0 mph 18.3 mph 98 % 0.0 in
01:23 9.4 °F 9.0 °F 1020.9 in SW 16.3 mph 18.3 mph 98 % 0.0 in
01:26 9.4 °F 9.0 °F 1020.9 in WSW 15.8 mph 20.6 mph 98 % 0.0 in
01:30 9.4 °F 9.0 °F 1020.9 in WSW 14.3 mph 20.6 mph 98 % 0.0 in
01:35 9.4 °F 9.0 °F 1020.9 in WSW 9.7 mph 20.1 mph 98 % 0.0 in
01:40 9.4 °F 9.0 °F 1020.9 in WSW 12.6 mph 20.9 mph 98 % 0.0 in
01:45 9.4 °F 9.0 °F 1019.9 in SW 21.2 mph 21.2 mph 98 % 0.0 in
01:50 9.4 °F 9.0 °F 1019.9 in SSW 19.5 mph 21.2 mph 97 % 0.0 in
01:55 9.4 °F 9.0 °F 1019.9 in SW 15.8 mph 21.2 mph 97 % 0.0 in
01:57 9.4 °F 9.0 °F 1019.9 in SW 15.1 mph 19.5 mph 97 % 0.0 in
02:02 9.4 °F 9.0 °F 1019.9 in WSW 13.7 mph 16.9 mph 97 % 0.0 in
02:06 9.3 °F 9.0 °F 1019.9 in SSW 15.8 mph 15.8 mph 97 % 0.0 in
02:11 9.3 °F 9.0 °F 1019.9 in SSW 10.1 mph 15.8 mph 97 % 0.0 in
02:13 9.3 °F 9.0 °F 1019.9 in SSW 11.9 mph 15.8 mph 97 % 0.0 in
02:14 9.3 °F 9.0 °F 1019.9 in SSW 10.1 mph 15.8 mph 97 % 0.0 in
02:19 9.3 °F 9.0 °F 1019.9 in WSW 14.0 mph 16.3 mph 96 % 0.0 in
02:20 9.3 °F 9.0 °F 1019.9 in SW 9.3 mph 16.6 mph 96 % 0.0 in
02:25 9.3 °F 9.0 °F 1019.9 in WSW 10.1 mph 20.9 mph 96 % 0.0 in
02:27 9.3 °F 9.0 °F 1018.8 in WSW 10.5 mph 20.9 mph 96 % 0.0 in
02:29 9.3 °F 9.0 °F 1018.8 in WSW 16.9 mph 20.9 mph 96 % 0.0 in
02:34 9.3 °F 9.0 °F 1018.8 in SW 10.5 mph 16.9 mph 96 % 0.0 in
02:35 9.3 °F 9.0 °F 1018.8 in SW 12.2 mph 19.5 mph 96 % 0.0 in
02:40 9.3 °F 9.0 °F 1018.8 in SW 11.9 mph 19.5 mph 96 % 0.0 in
02:44 9.3 °F 9.0 °F 1018.8 in SSW 12.2 mph 19.5 mph 96 % 0.0 in
02:49 9.3 °F 9.0 °F 1018.8 in SSW 11.6 mph 17.2 mph 96 % 0.0 in
02:51 9.3 °F 9.0 °F 1018.8 in SW 17.7 mph 17.7 mph 96 % 0.0 in
02:53 9.3 °F 9.0 °F 1018.8 in SW 17.7 mph 17.7 mph 96 % 0.0 in
02:58 9.3 °F 9.0 °F 1018.8 in WSW 13.7 mph 20.6 mph 96 % 0.0 in
02:59 9.3 °F 9.0 °F 1018.8 in WSW 24.8 mph 24.8 mph 96 % 0.0 in
03:04 9.3 °F 9.0 °F 1018.8 in SSW 12.6 mph 24.8 mph 95 % 0.0 in
03:07 9.3 °F 9.0 °F 1018.8 in SSW 12.6 mph 24.8 mph 95 % 0.0 in
03:09 9.3 °F 9.0 °F 1018.8 in SW 11.9 mph 24.8 mph 95 % 0.0 in
03:14 9.3 °F 9.0 °F 1018.2 in SW 12.6 mph 19.5 mph 95 % 0.0 in
03:19 9.3 °F 9.0 °F 1018.2 in SSW 10.1 mph 19.5 mph 95 % 0.0 in
03:21 9.3 °F 9.0 °F 1018.2 in WSW 13.7 mph 18.3 mph 95 % 0.0 in
03:26 9.3 °F 9.0 °F 1018.8 in SSW 13.7 mph 17.7 mph 95 % 0.0 in
03:27 9.3 °F 9.0 °F 1018.8 in WSW 17.7 mph 17.7 mph 95 % 0.0 in
03:28 9.3 °F 9.0 °F 1018.8 in WSW 10.5 mph 17.7 mph 95 % 0.0 in
03:33 9.3 °F 9.0 °F 1018.8 in WSW 12.6 mph 17.7 mph 95 % 0.0 in
03:35 9.3 °F 9.0 °F 1018.8 in SSW 9.0 mph 17.7 mph 95 % 0.0 in
03:39 9.3 °F 9.0 °F 1018.8 in SW 13.0 mph 15.8 mph 94 % 0.0 in
03:41 9.3 °F 9.0 °F 1018.8 in WSW 9.0 mph 15.8 mph 94 % 0.0 in
03:46 9.3 °F 9.0 °F 1018.8 in WSW 14.3 mph 16.9 mph 94 % 0.0 in
03:51 9.3 °F 9.0 °F 1018.8 in SW 16.9 mph 19.8 mph 94 % 0.0 in
03:54 9.3 °F 9.0 °F 1018.8 in SSW 17.2 mph 19.8 mph 94 % 0.0 in
03:59 9.4 °F 9.0 °F 1018.8 in SW 14.0 mph 19.8 mph 93 % 0.0 in
04:02 9.4 °F 9.0 °F 1018.8 in SW 14.8 mph 19.8 mph 93 % 0.0 in
04:03 9.4 °F 9.0 °F 1018.8 in SSW 13.0 mph 19.8 mph 93 % 0.0 in
04:08 9.4 °F 8.0 °F 1018.8 in SSW 16.6 mph 19.8 mph 92 % 0.0 in
04:11 9.4 °F 8.0 °F 1018.8 in SW 12.6 mph 19.8 mph 92 % 0.0 in
04:16 9.3 °F 8.0 °F 1018.8 in SW 16.9 mph 19.8 mph 92 % 0.0 in
04:17 9.3 °F 8.0 °F 1018.8 in SW 13.0 mph 19.8 mph 92 % 0.0 in
04:18 9.3 °F 8.0 °F 1018.8 in SW 13.0 mph 19.8 mph 92 % 0.0 in
04:22 9.4 °F 8.0 °F 1018.8 in WSW 9.0 mph 20.6 mph 92 % 0.0 in
04:24 9.3 °F 8.0 °F 1018.8 in WSW 11.9 mph 20.6 mph 92 % 0.0 in
04:28 9.4 °F 8.0 °F 1018.8 in SW 13.7 mph 20.6 mph 91 % 0.0 in
04:30 9.4 °F 8.0 °F 1018.8 in SSW 13.0 mph 20.6 mph 91 % 0.0 in
04:35 9.4 °F 8.0 °F 1018.8 in SW 13.7 mph 20.9 mph 91 % 0.0 in
04:38 9.3 °F 8.0 °F 1018.8 in SSW 10.5 mph 20.9 mph 91 % 0.0 in
04:43 9.4 °F 8.0 °F 1018.8 in SSW 15.8 mph 21.6 mph 90 % 0.0 in
04:44 9.4 °F 8.0 °F 1018.8 in WSW 12.6 mph 21.6 mph 90 % 0.0 in
04:48 9.4 °F 8.0 °F 1018.8 in SSW 14.0 mph 25.3 mph 89 % 0.0 in
04:50 9.4 °F 8.0 °F 1018.8 in SW 15.8 mph 25.3 mph 89 % 0.0 in
04:55 9.4 °F 8.0 °F 1018.8 in SW 14.0 mph 25.3 mph 88 % 0.0 in
05:00 9.4 °F 8.0 °F 1018.8 in WSW 14.0 mph 23.8 mph 88 % 0.0 in
05:03 9.4 °F 8.0 °F 1018.8 in SW 16.3 mph 25.3 mph 87 % 0.0 in
05:07 9.4 °F 8.0 °F 1018.8 in WSW 13.7 mph 25.3 mph 87 % 0.0 in
05:10 9.4 °F 8.0 °F 1018.2 in SW 13.7 mph 25.3 mph 87 % 0.0 in
05:15 9.4 °F 8.0 °F 1018.2 in SW 20.6 mph 20.6 mph 87 % 0.0 in
05:20 9.4 °F 8.0 °F 1018.2 in SW 17.2 mph 20.6 mph 87 % 0.0 in
05:25 9.4 °F 8.0 °F 1018.2 in WSW 17.2 mph 21.2 mph 87 % 0.0 in
05:27 9.4 °F 8.0 °F 1018.2 in SSW 13.7 mph 21.2 mph 87 % 0.0 in
05:31 9.3 °F 8.0 °F 1018.2 in SSW 13.7 mph 20.9 mph 87 % 0.0 in
05:36 9.3 °F 8.0 °F 1018.2 in WSW 17.7 mph 20.9 mph 87 % 0.0 in
05:39 9.3 °F 8.0 °F 1018.2 in WSW 14.0 mph 20.9 mph 87 % 0.0 in
05:44 9.3 °F 8.0 °F 1018.2 in SW 12.2 mph 19.8 mph 87 % 0.0 in
05:49 9.3 °F 8.0 °F 1018.2 in SW 14.0 mph 21.2 mph 87 % 0.0 in
05:54 9.3 °F 8.0 °F 1018.2 in SSW 13.0 mph 21.2 mph 87 % 0.0 in
05:59 9.3 °F 7.0 °F 1018.2 in SW 11.1 mph 18.0 mph 86 % 0.0 in
06:00 9.3 °F 7.0 °F 1018.2 in SW 13.7 mph 21.2 mph 86 % 0.0 in
06:05 9.3 °F 8.0 °F 1018.2 in SSW 13.7 mph 21.2 mph 87 % 0.0 in
06:07 9.3 °F 8.0 °F 1018.2 in SSW 10.5 mph 21.2 mph 87 % 0.0 in
06:12 9.3 °F 8.0 °F 1018.2 in SSW 15.8 mph 18.0 mph 87 % 0.0 in
06:14 9.3 °F 8.0 °F 1018.2 in SSW 14.0 mph 17.2 mph 87 % 0.0 in
06:19 9.3 °F 8.0 °F 1018.2 in SSW 16.6 mph 20.9 mph 87 % 0.0 in
06:23 9.3 °F 8.0 °F 1018.2 in SW 12.6 mph 24.8 mph 87 % 0.0 in
06:26 9.2 °F 8.0 °F 1018.2 in WSW 13.0 mph 24.8 mph 87 % 0.0 in
06:28 9.2 °F 8.0 °F 1018.2 in WSW 12.6 mph 24.8 mph 87 % 0.0 in
06:31 9.2 °F 8.0 °F 1018.2 in WSW 10.8 mph 24.8 mph 87 % 0.0 in
06:36 9.2 °F 8.0 °F 1018.2 in SW 17.7 mph 17.7 mph 87 % 0.0 in
06:38 9.2 °F 8.0 °F 1018.2 in SSW 12.6 mph 19.5 mph 87 % 0.0 in
06:43 9.2 °F 8.0 °F 1016.8 in SW 16.6 mph 24.5 mph 87 % 0.0 in
06:45 9.2 °F 8.0 °F 1016.8 in SW 11.9 mph 24.8 mph 87 % 0.0 in
06:50 9.2 °F 8.0 °F 1016.8 in SSW 16.6 mph 24.8 mph 88 % 0.0 in
06:53 9.1 °F 7.0 °F 1016.8 in SW 15.8 mph 24.8 mph 88 % 0.0 in
06:55 9.1 °F 7.0 °F 1016.8 in SSW 15.8 mph 20.1 mph 88 % 0.0 in
07:00 9.1 °F 8.0 °F 1016.8 in SW 9.0 mph 18.0 mph 89 % 0.0 in
07:05 9.0 °F 8.0 °F 1016.8 in SSW 11.9 mph 15.4 mph 90 % 0.0 in
07:06 9.0 °F 8.0 °F 1016.8 in SSW 11.9 mph 15.4 mph 90 % 0.0 in
07:11 8.9 °F 8.0 °F 1016.8 in SSW 11.6 mph 15.8 mph 91 % 0.0 in
07:12 8.9 °F 8.0 °F 1016.8 in SSW 13.0 mph 15.8 mph 91 % 0.0 in
07:17 8.8 °F 8.0 °F 1016.8 in SSW 11.9 mph 15.8 mph 92 % 0.0 in
07:19 8.8 °F 8.0 °F 1016.8 in SW 9.3 mph 15.8 mph 92 % 0.0 in
07:23 8.7 °F 8.0 °F 1016.8 in SW 9.0 mph 13.0 mph 93 % 0.0 in
07:28 8.6 °F 8.0 °F 1016.8 in SSW 8.7 mph 15.8 mph 94 % 0.0 in
07:32 8.6 °F 8.0 °F 1016.8 in SSW 16.3 mph 21.2 mph 94 % 0.0 in
07:37 8.5 °F 8.0 °F 1016.8 in SW 10.1 mph 21.2 mph 95 % 0.0 in
07:38 8.5 °F 8.0 °F 1016.8 in SW 14.8 mph 21.2 mph 95 % 0.0 in
07:43 8.5 °F 8.0 °F 1016.8 in WSW 15.8 mph 19.1 mph 95 % 0.0 in
07:44 8.5 °F 8.0 °F 1016.8 in SW 16.3 mph 19.8 mph 95 % 0.0 in
07:49 8.5 °F 8.0 °F 1016.8 in WSW 15.4 mph 21.2 mph 95 % 0.0 in
07:53 8.5 °F 8.0 °F 1016.8 in SW 11.9 mph 21.2 mph 95 % 0.0 in
07:58 8.5 °F 8.0 °F 1016.1 in SW 13.7 mph 20.1 mph 95 % 0.0 in
07:59 8.5 °F 8.0 °F 1016.1 in SW 14.0 mph 20.1 mph 95 % 0.0 in
08:04 8.5 °F 8.0 °F 1016.1 in WSW 13.7 mph 16.9 mph 95 % 0.0 in
08:05 8.5 °F 8.0 °F 1016.1 in SSW 10.1 mph 19.8 mph 95 % 0.0 in
08:10 8.5 °F 8.0 °F 1016.1 in SSW 13.0 mph 19.8 mph 95 % 0.0 in
08:13 8.5 °F 8.0 °F 1016.1 in SW 13.7 mph 19.8 mph 95 % 0.0 in
08:19 8.5 °F 8.0 °F 1016.1 in WSW 11.9 mph 17.7 mph 95 % 0.0 in
08:24 8.5 °F 8.0 °F 1016.1 in SSW 10.1 mph 16.9 mph 95 % 0.0 in
08:27 8.4 °F 8.0 °F 1016.8 in SSW 11.9 mph 16.9 mph 95 % 0.0 in
08:32 8.4 °F 8.0 °F 1016.8 in South 6.1 mph 16.9 mph 95 % 0.0 in
08:37 8.4 °F 8.0 °F 1016.8 in SSW 17.7 mph 17.7 mph 95 % 0.0 in
08:40 8.3 °F 8.0 °F 1016.8 in WSW 13.0 mph 17.7 mph 95 % 0.0 in
08:42 8.3 °F 8.0 °F 1016.8 in SSW 12.6 mph 19.8 mph 95 % 0.0 in
08:47 8.3 °F 8.0 °F 1016.8 in SSW 10.1 mph 20.1 mph 96 % 0.0 in
08:49 8.2 °F 8.0 °F 1016.8 in SSW 9.7 mph 20.1 mph 96 % 0.0 in
08:54 8.2 °F 8.0 °F 1016.8 in SW 12.6 mph 20.1 mph 96 % 0.0 in
08:55 8.2 °F 8.0 °F 1016.8 in SSW 13.0 mph 20.1 mph 96 % 0.0 in
09:00 8.2 °F 8.0 °F 1016.1 in SSW 12.6 mph 17.2 mph 96 % 0.0 in
09:03 8.2 °F 8.0 °F 1016.1 in SW 14.0 mph 17.2 mph 96 % 0.0 in
09:08 8.2 °F 8.0 °F 1016.1 in SW 14.3 mph 16.9 mph 96 % 0.0 in
09:12 8.2 °F 8.0 °F 1016.8 in SSW 11.6 mph 17.2 mph 96 % 0.0 in
09:17 8.1 °F 8.0 °F 1016.8 in South 15.4 mph 17.2 mph 96 % 0.0 in
09:22 8.1 °F 8.0 °F 1016.8 in SW 8.7 mph 21.2 mph 96 % 0.0 in
09:23 8.1 °F 8.0 °F 1016.8 in SSW 13.7 mph 21.2 mph 96 % 0.0 in
09:28 8.1 °F 8.0 °F 1016.8 in SSW 11.1 mph 19.5 mph 96 % 0.0 in
09:29 8.0 °F 8.0 °F 1016.8 in SW 11.6 mph 17.2 mph 96 % 0.0 in
09:34 8.0 °F 8.0 °F 1016.8 in SSW 15.8 mph 19.8 mph 96 % 0.0 in
09:36 8.0 °F 8.0 °F 1016.8 in SW 15.8 mph 19.8 mph 97 % 0.0 in
09:41 8.0 °F 8.0 °F 1016.8 in South 12.6 mph 20.1 mph 97 % 0.0 in
09:42 8.0 °F 8.0 °F 1016.8 in SSW 10.1 mph 20.1 mph 97 % 0.0 in
09:47 8.0 °F 8.0 °F 1016.8 in SSW 6.4 mph 20.1 mph 97 % 0.0 in
09:48 8.0 °F 8.0 °F 1016.8 in SSW 9.7 mph 20.1 mph 97 % 0.0 in
09:53 8.0 °F 8.0 °F 1016.8 in WSW 17.7 mph 18.0 mph 97 % 0.0 in
09:58 8.0 °F 8.0 °F 1016.8 in SSW 16.6 mph 20.9 mph 97 % 0.0 in
09:59 8.0 °F 8.0 °F 1016.8 in WSW 17.2 mph 20.9 mph 97 % 0.0 in
10:04 8.1 °F 8.0 °F 1016.8 in SW 18.3 mph 20.9 mph 97 % 0.0 in
10:07 8.1 °F 8.0 °F 1016.8 in SSW 16.6 mph 20.9 mph 97 % 0.0 in
10:12 8.1 °F 8.0 °F 1016.8 in SSW 10.1 mph 19.8 mph 96 % 0.0 in
10:17 8.1 °F 8.0 °F 1016.8 in SSW 11.6 mph 20.6 mph 96 % 0.0 in
10:22 8.2 °F 8.0 °F 1016.8 in WSW 9.0 mph 20.6 mph 96 % 0.0 in
10:24 8.2 °F 8.0 °F 1016.8 in South 16.9 mph 20.6 mph 95 % 0.0 in
10:29 8.2 °F 7.0 °F 1016.8 in South 12.6 mph 21.2 mph 94 % 0.0 in
10:30 8.2 °F 7.0 °F 1016.8 in SSW 10.1 mph 21.2 mph 94 % 0.0 in
10:32 8.2 °F 7.0 °F 1016.8 in SSW 12.2 mph 21.2 mph 94 % 0.0 in
10:37 8.2 °F 7.0 °F 1016.8 in SSW 16.6 mph 20.6 mph 94 % 0.0 in
10:39 8.2 °F 7.0 °F 1016.8 in SSW 9.7 mph 20.6 mph 94 % 0.0 in
10:44 8.1 °F 7.0 °F 1016.1 in SSW 16.6 mph 20.6 mph 93 % 0.0 in
10:45 8.1 °F 7.0 °F 1016.1 in South 20.1 mph 20.6 mph 93 % 0.0 in
10:49 8.1 °F 7.0 °F 1016.1 in SSW 12.2 mph 21.9 mph 93 % 0.0 in
10:51 8.1 °F 7.0 °F 1016.1 in South 21.2 mph 21.9 mph 93 % 0.0 in
10:56 8.1 °F 7.0 °F 1016.1 in SSW 10.1 mph 27.0 mph 93 % 0.0 in
11:01 8.0 °F 7.0 °F 1016.1 in WSW 14.0 mph 27.0 mph 93 % 0.0 in
11:06 8.0 °F 7.0 °F 1016.1 in SSW 15.8 mph 27.7 mph 93 % 0.0 in
11:07 8.0 °F 7.0 °F 1016.1 in South 15.4 mph 27.7 mph 93 % 0.0 in
11:08 8.0 °F 7.0 °F 1016.1 in SSW 13.7 mph 27.7 mph 93 % 0.0 in
11:13 8.0 °F 7.0 °F 1016.1 in SW 16.3 mph 27.7 mph 93 % 0.0 in
11:14 8.0 °F 7.0 °F 1016.1 in South 13.0 mph 27.7 mph 93 % 0.0 in
11:17 8.0 °F 7.0 °F 1016.1 in SSW 15.8 mph 24.8 mph 92 % 0.0 in
11:19 8.0 °F 7.0 °F 1016.1 in SSW 17.2 mph 24.8 mph 92 % 0.0 in
11:24 8.1 °F 7.0 °F 1016.1 in SSW 10.5 mph 21.2 mph 92 % 0.0 in
11:25 8.1 °F 7.0 °F 1016.1 in SSW 16.9 mph 21.2 mph 92 % 0.0 in
11:30 8.1 °F 7.0 °F 1015.1 in SSW 9.7 mph 24.8 mph 91 % 0.0 in
11:31 8.1 °F 7.0 °F 1015.1 in South 16.9 mph 24.8 mph 90 % 0.0 in
11:36 8.1 °F 7.0 °F 1015.1 in SSW 16.6 mph 24.8 mph 89 % 0.0 in
11:40 8.2 °F 6.0 °F 1015.1 in SSW 13.7 mph 22.4 mph 88 % 0.0 in
11:43 8.2 °F 6.0 °F 1015.1 in SW 15.4 mph 21.2 mph 88 % 0.0 in
11:47 8.3 °F 7.0 °F 1015.1 in SW 12.2 mph 19.8 mph 87 % 0.0 in
11:48 8.3 °F 7.0 °F 1015.1 in SSW 15.8 mph 21.2 mph 87 % 0.0 in
11:53 8.3 °F 6.0 °F 1015.1 in South 13.7 mph 21.2 mph 86 % 0.0 in
11:55 8.3 °F 6.0 °F 1015.1 in South 21.6 mph 21.6 mph 86 % 0.0 in
12:00 8.4 °F 6.0 °F 1016.1 in SSW 13.7 mph 23.8 mph 85 % 0.0 in
12:01 8.4 °F 6.0 °F 1016.1 in SSW 8.7 mph 23.8 mph 85 % 0.0 in
12:02 8.4 °F 6.0 °F 1016.1 in SW 20.6 mph 23.8 mph 85 % 0.0 in
12:07 8.4 °F 6.0 °F 1016.1 in SSW 16.6 mph 20.6 mph 85 % 0.0 in
12:11 8.4 °F 6.0 °F 1014.1 in South 17.2 mph 20.6 mph 85 % 0.0 in
12:16 8.4 °F 6.0 °F 1014.1 in SW 18.0 mph 20.6 mph 85 % 0.0 in
12:21 8.4 °F 6.0 °F 1014.1 in SSW 10.5 mph 21.6 mph 85 % 0.0 in
12:23 8.4 °F 6.0 °F 1014.1 in SSW 12.6 mph 21.6 mph 85 % 0.0 in
12:28 8.4 °F 6.0 °F 1015.1 in SSW 9.7 mph 30.9 mph 85 % 0.0 in
12:30 8.4 °F 6.0 °F 1015.1 in SSW 15.8 mph 30.9 mph 86 % 0.0 in
12:33 8.4 °F 6.0 °F 1015.1 in SW 9.7 mph 30.9 mph 86 % 0.0 in
12:36 8.4 °F 6.0 °F 1015.1 in South 16.9 mph 17.2 mph 86 % 0.0 in
12:38 8.4 °F 6.0 °F 1015.1 in SSW 17.2 mph 17.2 mph 86 % 0.0 in
12:43 8.4 °F 6.0 °F 1014.1 in South 13.7 mph 17.7 mph 86 % 0.0 in
12:44 8.4 °F 6.0 °F 1014.1 in South 14.0 mph 17.7 mph 86 % 0.0 in
12:49 8.3 °F 7.0 °F 1014.1 in South 13.0 mph 31.4 mph 87 % 0.0 in
12:50 8.3 °F 7.0 °F 1014.1 in South 19.5 mph 31.4 mph 87 % 0.0 in
12:55 8.4 °F 7.0 °F 1014.1 in South 12.2 mph 31.4 mph 87 % 0.0 in
12:58 8.4 °F 7.0 °F 1013.1 in SSW 14.0 mph 24.5 mph 87 % 0.0 in
13:03 8.4 °F 7.0 °F 1013.1 in South 17.7 mph 24.5 mph 88 % 0.0 in
13:05 8.4 °F 7.0 °F 1013.1 in SSW 11.9 mph 23.8 mph 88 % 0.0 in
13:06 8.4 °F 7.0 °F 1013.1 in SSE 22.4 mph 23.8 mph 88 % 0.0 in
13:11 8.4 °F 7.0 °F 1013.1 in South 15.8 mph 23.8 mph 88 % 0.0 in
13:12 8.4 °F 7.0 °F 1013.1 in South 20.1 mph 23.8 mph 88 % 0.0 in
13:13 8.4 °F 7.0 °F 1013.1 in South 21.9 mph 25.3 mph 88 % 0.0 in
13:18 8.4 °F 7.0 °F 1013.1 in SSW 12.2 mph 25.3 mph 88 % 0.0 in
13:19 8.4 °F 7.0 °F 1013.1 in SSW 14.0 mph 25.3 mph 88 % 0.0 in
13:24 8.3 °F 7.0 °F 1013.1 in SSW 13.7 mph 23.3 mph 89 % 0.0 in
13:25 8.3 °F 7.0 °F 1013.1 in SSE 12.2 mph 23.3 mph 89 % 0.0 in
13:27 8.3 °F 7.0 °F 1012.1 in WSW 12.6 mph 23.3 mph 89 % 0.0 in
13:32 8.3 °F 7.0 °F 1012.1 in South 13.0 mph 31.4 mph 89 % 0.0 in
13:34 8.3 °F 7.0 °F 1012.1 in SSW 15.8 mph 31.4 mph 89 % 0.0 in
13:39 8.3 °F 7.0 °F 1012.1 in South 12.2 mph 31.4 mph 89 % 0.0 in
13:41 8.3 °F 7.0 °F 1013.1 in South 16.3 mph 23.0 mph 89 % 0.0 in
13:42 8.2 °F 7.0 °F 1013.1 in SW 15.1 mph 23.0 mph 89 % 0.0 in
13:47 8.2 °F 7.0 °F 1013.1 in SSW 13.7 mph 23.0 mph 90 % 0.0 in
13:49 8.2 °F 7.0 °F 1013.1 in South 16.3 mph 21.2 mph 90 % 0.0 in
13:54 8.2 °F 7.0 °F 1013.1 in SSW 10.5 mph 24.8 mph 89 % 0.0 in
13:59 8.1 °F 7.0 °F 1013.1 in South 18.0 mph 26.7 mph 89 % 0.0 in
14:05 8.2 °F 7.0 °F 1013.1 in SSW 20.9 mph 26.7 mph 89 % 0.0 in
14:10 8.2 °F 6.0 °F 1013.1 in SSW 14.8 mph 27.4 mph 88 % 0.0 in
14:11 8.2 °F 6.0 °F 1013.1 in SSW 15.8 mph 27.4 mph 88 % 0.0 in
14:16 8.1 °F 6.0 °F 1013.1 in South 14.8 mph 27.7 mph 88 % 0.0 in
14:21 8.1 °F 7.0 °F 1013.1 in South 10.5 mph 27.7 mph 89 % 0.0 in
14:22 8.2 °F 7.0 °F 1013.1 in SW 16.3 mph 27.7 mph 89 % 0.0 in
14:27 8.1 °F 7.0 °F 1012.1 in SSW 21.2 mph 27.7 mph 89 % 0.0 in
14:30 8.1 °F 7.0 °F 1012.1 in SSE 16.6 mph 27.7 mph 89 % 0.0 in
14:35 8.1 °F 6.0 °F 1012.1 in SSW 15.4 mph 27.7 mph 88 % 0.0 in
14:38 8.1 °F 7.0 °F 1012.1 in SSW 26.7 mph 26.7 mph 89 % 0.0 in
14:43 8.0 °F 7.0 °F 1012.1 in SSW 28.0 mph 28.0 mph 89 % 0.0 in
14:44 8.0 °F 7.0 °F 1012.1 in SW 20.9 mph 28.0 mph 89 % 0.0 in
14:50 8.0 °F 7.0 °F 1012.1 in South 22.4 mph 28.0 mph 89 % 0.0 in
14:51 8.0 °F 7.0 °F 1012.1 in SSW 24.8 mph 28.0 mph 89 % 0.0 in
14:56 8.0 °F 7.0 °F 1012.1 in SSW 16.9 mph 27.7 mph 89 % 0.0 in
14:59 8.0 °F 7.0 °F 1012.1 in SSW 20.9 mph 27.7 mph 89 % 0.0 in
15:04 8.0 °F 7.0 °F 1012.1 in South 9.3 mph 28.0 mph 90 % 0.0 in
15:05 8.0 °F 7.0 °F 1012.1 in SSW 12.2 mph 28.0 mph 90 % 0.0 in
15:10 8.0 °F 7.0 °F 1012.1 in South 12.2 mph 28.0 mph 90 % 0.0 in
15:12 7.9 °F 7.0 °F 1011.1 in SSW 20.6 mph 28.0 mph 91 % 0.0 in
15:17 8.0 °F 7.0 °F 1011.1 in SSW 15.4 mph 25.9 mph 91 % 0.0 in
15:18 8.0 °F 7.0 °F 1011.1 in SSW 8.7 mph 25.9 mph 91 % 0.0 in
15:23 8.0 °F 7.0 °F 1011.1 in SSE 16.9 mph 25.9 mph 91 % 0.0 in
15:28 8.0 °F 7.0 °F 1010.0 in South 17.7 mph 23.8 mph 90 % 0.0 in
15:30 8.0 °F 7.0 °F 1010.0 in South 14.0 mph 23.8 mph 90 % 0.0 in
15:31 8.0 °F 7.0 °F 1010.0 in SSW 12.2 mph 23.8 mph 90 % 0.0 in
15:36 7.9 °F 7.0 °F 1010.0 in South 20.9 mph 23.8 mph 91 % 0.0 in
15:39 7.9 °F 7.0 °F 1010.0 in SSW 14.8 mph 21.6 mph 91 % 0.0 in
15:44 7.9 °F 7.0 °F 1012.1 in South 23.8 mph 23.8 mph 91 % 0.0 in
15:47 7.9 °F 7.0 °F 1012.1 in South 20.1 mph 24.8 mph 92 % 0.0 in
15:49 7.9 °F 7.0 °F 1012.1 in South 16.6 mph 28.0 mph 92 % 0.0 in
15:55 7.7 °F 6.0 °F 1012.1 in SSW 12.2 mph 28.0 mph 92 % 0.0 in
15:57 7.7 °F 6.0 °F 1011.1 in South 20.6 mph 28.0 mph 92 % 0.0 in
16:00 7.6 °F 6.0 °F 1011.1 in South 14.3 mph 22.4 mph 92 % 0.0 in
16:01 7.6 °F 6.0 °F 1011.1 in SSE 14.0 mph 22.4 mph 92 % 0.0 in
16:03 7.6 °F 6.0 °F 1011.1 in South 13.0 mph 23.0 mph 92 % 0.0 in
16:08 7.5 °F 7.0 °F 1011.1 in South 13.0 mph 23.0 mph 93 % 0.0 in
16:13 7.5 °F 7.0 °F 1011.1 in SSW 11.9 mph 22.7 mph 93 % 0.0 in
16:18 7.5 °F 7.0 °F 1011.1 in WSW 11.9 mph 24.5 mph 93 % 0.0 in
16:19 7.5 °F 7.0 °F 1011.1 in SSW 13.0 mph 24.5 mph 93 % 0.0 in
16:25 7.4 °F 6.0 °F 1011.1 in WSW 14.8 mph 22.7 mph 93 % 0.0 in
16:27 7.4 °F 6.0 °F 1010.0 in South 16.6 mph 20.1 mph 93 % 0.0 in
16:30 7.4 °F 6.0 °F 1010.0 in SSW 16.6 mph 23.8 mph 93 % 0.0 in
16:33 7.4 °F 6.0 °F 1010.0 in SSE 21.2 mph 23.8 mph 93 % 0.0 in
16:38 7.4 °F 6.0 °F 1010.0 in SSW 24.8 mph 25.6 mph 93 % 0.0 in
16:44 7.4 °F 6.0 °F 1010.0 in SSW 17.7 mph 25.6 mph 93 % 0.0 in
16:47 7.4 °F 6.0 °F 1010.0 in South 17.7 mph 25.6 mph 93 % 0.0 in
16:50 7.4 °F 6.0 °F 1010.0 in South 14.0 mph 24.5 mph 93 % 0.0 in
16:55 7.3 °F 6.0 °F 1010.0 in SSW 14.0 mph 24.8 mph 93 % 0.0 in
16:57 7.3 °F 6.0 °F 1010.0 in SSW 16.3 mph 24.8 mph 93 % 0.0 in
17:02 7.3 °F 6.0 °F 1010.0 in SSW 16.3 mph 30.9 mph 93 % 0.0 in
17:04 7.3 °F 6.0 °F 1010.0 in SSW 27.4 mph 30.9 mph 93 % 0.0 in
17:08 7.3 °F 6.0 °F 1010.0 in SSE 21.2 mph 30.9 mph 93 % 0.0 in
17:13 7.3 °F 6.0 °F 1010.0 in SSW 17.2 mph 28.8 mph 93 % 0.0 in
17:18 7.3 °F 6.0 °F 1010.0 in SSW 20.9 mph 27.0 mph 93 % 0.0 in
17:20 7.3 °F 6.0 °F 1010.0 in SSW 10.5 mph 27.0 mph 93 % 0.0 in
17:23 7.3 °F 6.0 °F 1010.0 in South 12.2 mph 27.0 mph 93 % 0.0 in
17:28 7.2 °F 6.0 °F 1009.0 in South 17.2 mph 25.6 mph 93 % 0.0 in
17:29 7.2 °F 6.0 °F 1009.0 in SW 17.2 mph 25.6 mph 93 % 0.0 in
17:34 7.2 °F 6.0 °F 1009.0 in SSE 20.6 mph 27.4 mph 93 % 0.0 in
17:35 7.2 °F 6.0 °F 1009.0 in SSW 17.7 mph 27.4 mph 93 % 0.0 in
17:40 7.2 °F 6.0 °F 1009.0 in South 13.0 mph 28.8 mph 93 % 0.0 in
17:45 7.1 °F 6.0 °F 1009.0 in South 20.6 mph 34.6 mph 93 % 0.0 in
17:49 7.1 °F 6.0 °F 1009.0 in South 24.8 mph 34.6 mph 93 % 0.0 in
17:54 7.1 °F 6.0 °F 1009.0 in South 23.8 mph 34.6 mph 93 % 0.0 in
17:59 7.1 °F 6.0 °F 1009.0 in SSW 24.5 mph 36.0 mph 93 % 0.0 in
18:03 7.1 °F 6.0 °F 1009.0 in SSW 13.0 mph 36.0 mph 93 % 0.0 in
18:04 7.1 °F 6.0 °F 1009.0 in SSE 21.9 mph 36.0 mph 93 % 0.0 in
18:09 7.0 °F 6.0 °F 1009.0 in South 20.9 mph 34.6 mph 93 % 0.0 in
18:14 7.0 °F 6.0 °F 1008.0 in SSW 27.4 mph 36.0 mph 93 % 0.0 in
18:16 7.0 °F 6.0 °F 1008.0 in SSW 17.7 mph 36.0 mph 93 % 0.0 in
18:21 7.0 °F 6.0 °F 1008.0 in SSW 21.2 mph 28.5 mph 93 % 0.0 in
18:22 7.0 °F 6.0 °F 1008.0 in SW 23.8 mph 28.5 mph 93 % 0.0 in
18:27 7.0 °F 6.0 °F 1008.0 in South 24.8 mph 28.5 mph 93 % 0.0 in
18:32 6.9 °F 6.0 °F 1008.0 in SSW 14.3 mph 32.0 mph 94 % 0.0 in
18:37 6.9 °F 6.0 °F 1008.0 in South 26.2 mph 32.0 mph 94 % 0.0 in
18:40 6.8 °F 6.0 °F 1008.0 in SSW 12.2 mph 31.7 mph 94 % 0.0 in
18:45 6.8 °F 6.0 °F 1009.0 in SSW 28.0 mph 30.9 mph 94 % 0.0 in
18:47 6.8 °F 6.0 °F 1009.0 in SSE 17.2 mph 30.9 mph 94 % 0.0 in
18:52 6.8 °F 6.0 °F 1009.0 in SSW 23.3 mph 30.9 mph 94 % 0.0 in
18:55 6.8 °F 6.0 °F 1009.0 in South 23.8 mph 28.0 mph 94 % 0.0 in
19:00 6.7 °F 6.0 °F 1009.0 in SSE 10.5 mph 28.5 mph 94 % 0.0 in
19:01 6.7 °F 6.0 °F 1009.0 in South 24.8 mph 28.5 mph 94 % 0.0 in
19:06 6.7 °F 6.0 °F 1009.0 in SSW 23.8 mph 30.2 mph 94 % 0.0 in
19:08 6.7 °F 6.0 °F 1009.0 in South 16.9 mph 30.2 mph 94 % 0.0 in
19:13 6.7 °F 6.0 °F 1008.0 in SSW 15.1 mph 34.3 mph 94 % 0.0 in
19:18 6.7 °F 6.0 °F 1008.0 in SSW 19.8 mph 34.3 mph 94 % 0.0 in
19:19 6.7 °F 6.0 °F 1008.0 in SSW 16.6 mph 34.3 mph 94 % 0.0 in
19:23 6.6 °F 6.0 °F 1008.0 in SSW 27.7 mph 28.0 mph 94 % 0.0 in
19:28 6.6 °F 6.0 °F 1008.0 in South 31.7 mph 31.7 mph 95 % 0.0 in
19:29 6.6 °F 6.0 °F 1008.0 in SSW 21.2 mph 35.6 mph 94 % 0.0 in
19:35 6.6 °F 6.0 °F 1008.0 in South 13.7 mph 35.6 mph 95 % 0.0 in
19:36 6.5 °F 6.0 °F 1008.0 in SSW 19.5 mph 35.6 mph 95 % 0.0 in
19:41 6.5 °F 6.0 °F 1007.0 in South 25.3 mph 27.7 mph 95 % 0.0 in
19:42 6.5 °F 6.0 °F 1007.0 in SSW 16.6 mph 27.7 mph 95 % 0.0 in
19:47 6.4 °F 6.0 °F 1007.0 in South 28.5 mph 38.5 mph 95 % 0.0 in
19:48 6.4 °F 6.0 °F 1007.0 in South 20.6 mph 38.5 mph 95 % 0.0 in
19:53 6.4 °F 6.0 °F 1007.0 in SSE 17.7 mph 38.5 mph 95 % 0.0 in
19:58 6.4 °F 6.0 °F 1007.0 in South 20.6 mph 30.9 mph 95 % 0.0 in
20:03 6.4 °F 6.0 °F 1007.0 in SSE 16.3 mph 30.9 mph 95 % 0.0 in
20:04 6.4 °F 6.0 °F 1007.0 in South 19.8 mph 30.9 mph 95 % 0.0 in
20:08 6.3 °F 6.0 °F 1007.0 in SSW 22.7 mph 29.9 mph 95 % 0.0 in
20:10 6.3 °F 6.0 °F 1007.0 in SSW 16.6 mph 29.9 mph 95 % 0.0 in
20:14 6.3 °F 6.0 °F 1007.0 in SSE 27.4 mph 29.9 mph 95 % 0.0 in
20:15 6.3 °F 6.0 °F 1007.0 in SSE 22.7 mph 33.8 mph 95 % 0.0 in
20:20 6.3 °F 6.0 °F 1007.0 in South 27.4 mph 33.8 mph 95 % 0.0 in
20:23 6.3 °F 6.0 °F 1007.0 in South 24.5 mph 33.8 mph 95 % 0.0 in
20:28 6.2 °F 6.0 °F 1007.0 in South 13.0 mph 30.6 mph 95 % 0.0 in
20:29 6.2 °F 6.0 °F 1007.0 in SSW 17.2 mph 30.6 mph 95 % 0.0 in
20:34 6.1 °F 6.0 °F 1007.0 in South 18.0 mph 29.9 mph 95 % 0.0 in
20:39 6.1 °F 6.0 °F 1007.0 in SSE 20.9 mph 29.9 mph 95 % 0.0 in
20:40 6.1 °F 6.0 °F 1007.0 in South 25.9 mph 29.9 mph 95 % 0.0 in
20:41 6.0 °F 6.0 °F 1007.0 in South 25.9 mph 29.9 mph 95 % 0.0 in
20:46 6.0 °F 6.0 °F 1007.0 in SSW 13.7 mph 31.7 mph 95 % 0.0 in
20:47 6.0 °F 6.0 °F 1007.0 in SSW 24.8 mph 31.7 mph 95 % 0.0 in
20:52 5.9 °F 6.0 °F 1007.0 in SSW 17.2 mph 33.1 mph 96 % 0.0 in
20:55 5.9 °F 6.0 °F 1007.0 in South 24.5 mph 39.6 mph 96 % 0.0 in
21:00 5.9 °F 6.0 °F 1006.0 in SSE 15.4 mph 40.7 mph 96 % 0.0 in
21:02 5.9 °F 6.0 °F 1006.0 in SSW 17.7 mph 40.7 mph 96 % 0.0 in
21:03 5.9 °F 6.0 °F 1006.0 in South 16.3 mph 40.7 mph 96 % 0.0 in
21:08 5.9 °F 6.0 °F 1006.0 in SSW 28.0 mph 40.7 mph 96 % 0.0 in
21:11 5.9 °F 6.0 °F 1006.0 in SSW 15.4 mph 30.9 mph 96 % 0.0 in
21:16 5.9 °F 6.0 °F 1006.0 in South 30.2 mph 35.6 mph 96 % 0.0 in
21:21 5.9 °F 6.0 °F 1006.0 in SSW 34.6 mph 35.6 mph 96 % 0.0 in
21:22 5.9 °F 6.0 °F 1006.0 in SSW 24.5 mph 35.6 mph 96 % 0.0 in
21:26 5.8 °F 6.0 °F 1005.0 in SW 17.7 mph 34.6 mph 95 % 0.0 in
21:31 5.8 °F 6.0 °F 1005.0 in South 40.4 mph 40.4 mph 95 % 0.0 in
21:32 5.8 °F 6.0 °F 1005.0 in SSW 13.7 mph 40.4 mph 95 % 0.0 in
21:38 5.8 °F 6.0 °F 1005.0 in South 15.4 mph 40.4 mph 95 % 0.0 in
21:43 5.8 °F 6.0 °F 1005.0 in South 20.6 mph 32.0 mph 96 % 0.0 in
21:44 5.8 °F 6.0 °F 1005.0 in South 24.8 mph 32.0 mph 96 % 0.0 in
21:49 5.7 °F 6.0 °F 1005.0 in South 20.9 mph 41.4 mph 96 % 0.0 in
21:54 5.7 °F 5.0 °F 1005.0 in South 24.8 mph 41.4 mph 95 % 0.0 in
21:55 5.7 °F 6.0 °F 1005.0 in SSW 15.8 mph 41.4 mph 96 % 0.0 in
21:56 5.7 °F 6.0 °F 1005.0 in SSW 16.9 mph 41.4 mph 96 % 0.0 in
22:01 5.7 °F 6.0 °F 1005.0 in SSW 28.5 mph 38.1 mph 96 % 0.0 in
22:02 5.7 °F 6.0 °F 1005.0 in SW 32.0 mph 38.1 mph 96 % 0.0 in
22:07 5.7 °F 6.0 °F 1005.0 in SSE 21.2 mph 38.1 mph 96 % 0.0 in
22:12 5.7 °F 6.0 °F 1005.0 in SSW 24.8 mph 32.3 mph 96 % 0.0 in
22:14 5.7 °F 6.0 °F 1005.0 in SSW 24.5 mph 32.3 mph 96 % 0.0 in
22:16 5.7 °F 6.0 °F 1005.0 in South 17.7 mph 32.8 mph 96 % 0.0 in
22:21 5.6 °F 6.0 °F 1005.0 in SSW 19.5 mph 36.4 mph 96 % 0.0 in
22:22 5.6 °F 6.0 °F 1005.0 in South 23.8 mph 36.4 mph 96 % 0.0 in
22:23 5.6 °F 6.0 °F 1005.0 in South 20.9 mph 36.4 mph 96 % 0.0 in
22:28 5.6 °F 6.0 °F 1003.9 in South 20.6 mph 36.4 mph 96 % 0.0 in
22:33 5.6 °F 6.0 °F 1003.9 in SSW 39.6 mph 46.0 mph 96 % 0.0 in
22:34 5.6 °F 5.0 °F 1003.9 in SSE 24.5 mph 46.0 mph 95 % 0.0 in
22:38 5.6 °F 5.0 °F 1003.9 in SSW 19.5 mph 46.0 mph 95 % 0.0 in
22:40 5.6 °F 5.0 °F 1003.9 in South 21.6 mph 46.0 mph 95 % 0.0 in
22:45 5.6 °F 5.0 °F 1003.9 in SSE 30.9 mph 36.7 mph 95 % 0.0 in
22:47 5.6 °F 5.0 °F 1003.9 in South 31.4 mph 36.7 mph 95 % 0.0 in
22:52 5.6 °F 5.0 °F 1003.9 in SSW 24.8 mph 33.1 mph 95 % 0.0 in
22:53 5.6 °F 5.0 °F 1003.9 in SSW 17.2 mph 33.1 mph 95 % 0.0 in
22:58 5.6 °F 5.0 °F 1002.9 in South 20.6 mph 31.7 mph 95 % 0.0 in
23:01 5.6 °F 5.0 °F 1002.9 in SSW 10.5 mph 31.7 mph 95 % 0.0 in
23:02 5.6 °F 5.0 °F 1002.9 in South 31.7 mph 32.3 mph 95 % 0.0 in
23:07 5.7 °F 5.0 °F 1002.9 in South 21.2 mph 38.5 mph 95 % 0.0 in
23:10 5.7 °F 5.0 °F 1002.9 in South 28.0 mph 38.5 mph 95 % 0.0 in
23:15 5.7 °F 5.0 °F 1001.9 in SSW 20.6 mph 39.6 mph 94 % 0.0 in
23:20 5.7 °F 5.0 °F 1001.9 in South 23.8 mph 39.6 mph 94 % 0.0 in
23:22 5.7 °F 5.0 °F 1001.9 in South 16.9 mph 39.6 mph 94 % 0.0 in
23:27 5.7 °F 5.0 °F 1002.9 in South 17.2 mph 42.8 mph 94 % 0.0 in
23:32 5.7 °F 5.0 °F 1002.9 in SSW 18.3 mph 42.8 mph 94 % 0.0 in
23:34 5.7 °F 5.0 °F 1002.9 in South 27.4 mph 42.8 mph 94 % 0.0 in
23:39 5.7 °F 5.0 °F 1002.9 in South 30.2 mph 42.2 mph 94 % 0.0 in
23:43 5.7 °F 5.0 °F 1002.9 in South 27.7 mph 42.2 mph 94 % 0.0 in
23:47 5.6 °F 5.0 °F 1002.9 in SSW 16.6 mph 38.9 mph 94 % 0.0 in
23:51 5.6 °F 5.0 °F 1002.9 in SSW 19.8 mph 38.9 mph 94 % 0.0 in
23:56 5.6 °F 5.0 °F 1002.9 in South 22.7 mph 37.8 mph 94 % 0.0 in
23:58 5.6 °F 5.0 °F 1002.9 in SSW 28.5 mph 37.8 mph 94 % 0.0 in
Le Gheer Warneton
Courtoisie de Weather Underground - 3 mb

Mise a jour : 24/02/2018 15:09:11
Généré par Cumulus 1.9.4 (1099)